Weather History for KD39 - October, 2012

Change the Weather History Date:

Thursday, October 4, 2012

  Actual Average Record
Temperature  
Mean Temperature 48 °F -  
Max Temperature 60 °F - - ()
Min Temperature 35 °F - - ()
Degree Days  
Heating Degree Days 18    
Moisture  
Dew Point 33 °F    
Average Humidity 72    
Maximum Humidity 87    
Minimum Humidity 39    
Precipitation  
Precipitation 0.00 in - - ()
Sea Level Pressure  
Sea Level Pressure 29.95 in    
Wind  
Wind Speed 18 mph (West)    
Max Wind Speed 32 mph    
Max Gust Speed 44 mph    
Visibility 10 miles    
Events      
T = Trace of Precipitation, MM = Missing Value Source: NWS Daily Summary

Daily Weather History Graph

Daily Weather History Graph

Search for Another Location

Airport or City:

Trip Planner

Search our weather history database for the weather conditions in past years. The results will help you decide how hot, cold, wet, or windy it might be!

Date:

Astronomy

Oct. 04, 2012 Rise Set
Actual Time 7:22 AM CDT 6:53 PM CDT
Civil Twilight 6:52 AM CDT 7:22 PM CDT
Nautical Twilight 6:18 AM CDT 7:57 PM CDT
Astronomical Twilight 5:43 AM CDT 8:31 PM CDT
Moon 9:15 PM CDT (10/4) 11:54 AM CDT (10/4)
Length of Visible Light 12h 29m
Length of Day
11h 30m
Waning Gibbous, 82% of the Moon is Illuminated
Oct 4
Waning Gibbous
Oct 8
Last Quarter
Oct 15
New
Oct 21
First Quarter
Oct 29
Full

Hourly Weather History & Observations

Time (CDT) Temp. Windchill Dew Point Humidity Pressure Visibility Wind Dir Wind Speed Gust Speed Precip Events Conditions
12:15 AM 60.8 °F - 37.4 °F 42% 29.73 in 10.0 mi ESE 9.2 mph - N/A   Scattered Clouds
12:35 AM 60.8 °F - 37.4 °F 42% 29.71 in 10.0 mi East 10.4 mph - N/A   Clear
12:55 AM 60.8 °F - 35.6 °F 39% 29.71 in 10.0 mi ESE 9.2 mph - N/A   Clear
1:15 AM 59.0 °F - 35.6 °F 42% 29.70 in 10.0 mi ESE 11.5 mph - N/A   Scattered Clouds
1:35 AM 59.0 °F - 35.6 °F 42% 29.70 in 10.0 mi ESE 11.5 mph - N/A   Clear
1:55 AM 60.8 °F - 35.6 °F 39% 29.68 in 10.0 mi SE 10.4 mph - N/A   Clear
2:15 AM 59.0 °F - 35.6 °F 42% 29.68 in 10.0 mi SSE 11.5 mph 17.3 mph N/A   Clear
2:35 AM 57.2 °F - 33.8 °F 41% 29.67 in 10.0 mi South 17.3 mph 26.5 mph N/A   Clear
2:55 AM 53.6 °F - 35.6 °F 51% 29.68 in 7.0 mi SSW 19.6 mph 24.2 mph N/A   Clear
3:15 AM 50.0 °F - 37.4 °F 62% 29.67 in 7.0 mi South 15.0 mph 23.0 mph N/A   Clear
3:35 AM 46.4 °F 39.8 °F 39.2 °F 76% 29.68 in 10.0 mi SW 16.1 mph 23.0 mph N/A   Clear
3:55 AM 44.6 °F 36.1 °F 39.2 °F 81% 29.70 in 10.0 mi SW 21.9 mph 25.3 mph N/A   Clear
4:15 AM 44.6 °F 36.4 °F 37.4 °F 76% 29.71 in 10.0 mi WSW 20.7 mph 31.1 mph N/A   Mostly Cloudy
4:35 AM 44.6 °F 34.9 °F 37.4 °F 76% 29.72 in 10.0 mi WSW 28.8 mph 36.8 mph N/A   Overcast
4:55 AM 44.6 °F 34.7 °F 37.4 °F 76% 29.73 in 10.0 mi West 29.9 mph 40.3 mph N/A   Overcast
5:15 AM 42.8 °F 32.1 °F 37.4 °F 81% 29.75 in 10.0 mi West 31.1 mph 39.1 mph N/A   Overcast
5:35 AM 42.8 °F 32.5 °F 37.4 °F 81% 29.77 in 10.0 mi West 28.8 mph 39.1 mph N/A   Overcast
5:55 AM 41.0 °F 29.7 °F 37.4 °F 87% 29.78 in 10.0 mi West 31.1 mph 43.7 mph N/A   Overcast
6:15 AM 41.0 °F 30.0 °F 37.4 °F 87% 29.80 in 7.0 mi West 28.8 mph 39.1 mph N/A   Overcast
6:55 AM 37.4 °F 26.9 °F 33.8 °F 87% 29.82 in 10.0 mi West 20.7 mph 36.8 mph N/A   Overcast
7:15 AM 35.6 °F 22.7 °F 32.0 °F 87% 29.84 in 10.0 mi West 28.8 mph 38.0 mph N/A   Overcast
7:35 AM 35.6 °F 24.0 °F 32.0 °F 87% 29.85 in 10.0 mi West 23.0 mph 40.3 mph N/A   Overcast
7:55 AM 35.6 °F 24.5 °F 32.0 °F 87% 29.86 in 10.0 mi West 20.7 mph 36.8 mph N/A   Overcast
8:15 AM 35.6 °F 24.5 °F 32.0 °F 87% 29.87 in 10.0 mi West 20.7 mph 27.6 mph N/A   Overcast
8:55 AM 37.4 °F 26.1 °F 32.0 °F 81% 29.90 in 10.0 mi West 24.2 mph 34.5 mph N/A   Overcast
9:15 AM 35.6 °F 23.2 °F 32.0 °F 87% 29.91 in 4.0 mi West 26.5 mph 36.8 mph N/A   Overcast
9:35 AM 35.6 °F 22.1 °F 32.0 °F 87% 29.92 in 10.0 mi West 32.2 mph 40.3 mph N/A   Overcast
9:55 AM 35.6 °F 23.4 °F 32.0 °F 87% 29.94 in 10.0 mi West 25.3 mph 35.7 mph N/A   Overcast
10:15 AM 37.4 °F 25.0 °F 32.0 °F 81% 29.95 in 10.0 mi West 29.9 mph 40.3 mph N/A   Overcast
10:35 AM 37.4 °F 25.9 °F 30.2 °F 75% 29.96 in 10.0 mi WNW 25.3 mph 32.2 mph N/A   Overcast
10:55 AM 37.4 °F 25.9 °F 30.2 °F 75% 29.97 in 10.0 mi West 25.3 mph 34.5 mph N/A   Overcast
11:35 AM 39.2 °F 28.0 °F 30.2 °F 70% 29.97 in 7.0 mi WNW 26.5 mph 36.8 mph N/A   Overcast
11:55 AM 41.0 °F 31.1 °F 30.2 °F 65% 29.99 in 10.0 mi WNW 23.0 mph 38.0 mph N/A   Overcast
12:15 PM 41.0 °F 29.5 °F 30.2 °F 65% 30.00 in 7.0 mi WNW 32.2 mph 43.7 mph N/A   Overcast
12:55 PM 39.2 °F 29.0 °F 32.0 °F 75% 30.03 in 10.0 mi WNW 21.9 mph 35.7 mph N/A   Overcast
1:15 PM 41.0 °F 31.1 °F 32.0 °F 70% 30.03 in 10.0 mi West 23.0 mph 34.5 mph N/A   Overcast
1:35 PM 39.2 °F 28.5 °F 32.0 °F 75% 30.04 in 7.0 mi West 24.2 mph 36.8 mph N/A   Overcast
1:55 PM 41.0 °F 30.9 °F 32.0 °F 70% 30.04 in 10.0 mi West 24.2 mph 39.1 mph N/A   Overcast
2:35 PM 41.0 °F 31.6 °F 30.2 °F 65% 30.06 in 10.0 mi West 20.7 mph 35.7 mph N/A   Overcast
2:55 PM 41.0 °F 31.6 °F 32.0 °F 70% 30.07 in 10.0 mi West 20.7 mph 32.2 mph N/A   Overcast
3:15 PM 41.0 °F 30.7 °F 32.0 °F 70% 30.06 in 10.0 mi West 25.3 mph 36.8 mph N/A   Overcast
3:35 PM 41.0 °F 30.5 °F 32.0 °F 70% 30.08 in 10.0 mi WNW 26.5 mph 38.0 mph N/A   Overcast
3:55 PM 41.0 °F 31.9 °F 30.2 °F 65% 30.08 in 10.0 mi West 19.6 mph 31.1 mph N/A   Overcast
4:15 PM 41.0 °F 31.1 °F 32.0 °F 70% 30.09 in 10.0 mi West 23.0 mph 33.4 mph N/A   Overcast
4:35 PM 41.0 °F 31.9 °F 32.0 °F 70% 30.09 in 10.0 mi West 19.6 mph 38.0 mph N/A   Overcast
4:55 PM 41.0 °F 31.4 °F 32.0 °F 70% 30.10 in 10.0 mi West 21.9 mph 34.5 mph N/A   Overcast
5:35 PM 39.2 °F 29.8 °F 32.0 °F 75% 30.11 in 10.0 mi WNW 18.4 mph 29.9 mph N/A   Overcast
5:55 PM 37.4 °F 28.2 °F 32.0 °F 81% 30.11 in 7.0 mi WNW 16.1 mph 27.6 mph N/A   Drizzle
6:15 PM 37.4 °F 27.5 °F 32.0 °F 81% 30.11 in 10.0 mi West 18.4 mph 26.5 mph N/A   Overcast
6:35 PM 37.4 °F 26.9 °F 32.0 °F 81% 30.11 in 10.0 mi WNW 20.7 mph 32.2 mph N/A   Light Drizzle
6:55 PM 37.4 °F 27.8 °F 32.0 °F 81% 30.12 in 10.0 mi WNW 17.3 mph 24.2 mph N/A   Overcast
7:15 PM 37.4 °F 27.8 °F 32.0 °F 81% 30.12 in 10.0 mi WNW 17.3 mph 23.0 mph N/A   Overcast
7:35 PM 37.4 °F 28.5 °F 30.2 °F 75% 30.12 in 10.0 mi West 15.0 mph 21.9 mph N/A   Scattered Clouds
7:55 PM 37.4 °F 28.5 °F 30.2 °F 75% 30.12 in 10.0 mi West 15.0 mph 23.0 mph N/A   Scattered Clouds
8:15 PM 37.4 °F 28.2 °F 30.2 °F 75% 30.12 in 10.0 mi WNW 16.1 mph 23.0 mph N/A   Mostly Cloudy
8:35 PM 37.4 °F 28.5 °F 30.2 °F 75% 30.13 in 10.0 mi West 15.0 mph 19.6 mph N/A   Overcast
8:55 PM 37.4 °F 26.6 °F 32.0 °F 81% 30.13 in 10.0 mi WNW 21.9 mph 29.9 mph N/A   Mostly Cloudy
9:15 PM 37.4 °F 28.2 °F 30.2 °F 75% 30.14 in 10.0 mi WNW 16.1 mph 26.5 mph N/A   Mostly Cloudy
9:35 PM 37.4 °F 27.2 °F 30.2 °F 75% 30.14 in 10.0 mi WNW 19.6 mph 28.8 mph N/A   Overcast
9:55 PM 37.4 °F 27.5 °F 28.4 °F 70% 30.14 in 10.0 mi WNW 18.4 mph 27.6 mph N/A   Overcast
10:15 PM 37.4 °F 29.8 °F 30.2 °F 75% 30.14 in 10.0 mi WNW 11.5 mph 27.6 mph N/A   Overcast
10:55 PM 37.4 °F 28.5 °F 30.2 °F 75% 30.14 in 10.0 mi WNW 15.0 mph 27.6 mph N/A   Overcast
11:15 PM 35.6 °F 25.5 °F 32.0 °F 87% 30.14 in 10.0 mi West 17.3 mph 25.3 mph N/A   Overcast
11:35 PM 37.4 °F 27.2 °F 28.4 °F 70% 30.14 in 10.0 mi WNW 19.6 mph 32.2 mph N/A   Overcast
11:55 PM 37.4 °F 28.2 °F 28.4 °F 70% 30.14 in 10.0 mi WNW 16.1 mph 26.5 mph N/A   Overcast